Weather History for Chiang Mai, Thailand

Change the Weather History Date:

Friday, September 20, 2013

  Actual Average Record
Temperature  
Mean Temperature 83 °F -  
Max Temperature 90 °F 85 °F 93 °F (2010)
Min Temperature 76 °F 71 °F 71 °F (2000)
Cooling Degree Days 18    
Growing Degree Days 33 (Base 50)    
Moisture  
Dew Point 68 °F    
Average Humidity 64    
Maximum Humidity 89    
Minimum Humidity 43    
Precipitation  
Precipitation 0.00 in 0.21 in - ()
Sea Level Pressure  
Sea Level Pressure 29.73 in    
Wind  
Wind Speed 5 mph ()    
Max Wind Speed 17 mph    
Max Gust Speed -    
Visibility 6.2 miles    
Events      
Averages and records for this station are not official NWS values.
T = Trace of Precipitation, MM = Missing Value Source: Averaged Metar Reports

Daily Weather History Graph

Daily Weather History Graph

Search for Another Location

Airport:

Trip Planner

Search our weather history database for the weather conditions in past years. The results will help you decide how hot, cold, wet, or windy it might be!

Date:

Astronomy

Sep. 20, 2013 Rise Set
Actual Time 6:12 AM ICT 6:22 PM ICT
Civil Twilight 5:50 AM ICT 6:44 PM ICT
Nautical Twilight 5:25 AM ICT 7:09 PM ICT
Astronomical Twilight 4:59 AM ICT 7:35 PM ICT
Moon 6:53 PM ICT (9/20) 6:41 AM ICT (9/20)
Length of Visible Light 12h 53m
Length of Day
12h 09m
Full, 99% of the Moon is Illuminated
Sep 20
Full
Sep 27
Last Quarter
Oct 5
New
Oct 12
First Quarter
Oct 19
Full

Hourly Weather History & Observations

Time (ICT) Temp. Heat Index Dew Point Humidity Pressure Visibility Wind Dir Wind Speed Gust Speed Precip Events Conditions
12:00 AM 78.8 °F - 71.6 °F 78% 29.77 in 6.2 mi Calm Calm - N/A   Scattered Clouds
12:30 AM 77.0 °F - 71.6 °F 83% 29.74 in 6.2 mi Calm Calm - N/A   Scattered Clouds
1:00 AM 77.0 °F - 71.6 °F 83% 29.74 in 6.2 mi NNW 2.3 mph - N/A   Scattered Clouds
1:30 AM 77.0 °F - 71.6 °F 83% 29.74 in 6.2 mi Calm Calm - N/A   Scattered Clouds
2:00 AM 77.0 °F - 71.6 °F 83% 29.74 in 6.2 mi Calm Calm - N/A   Scattered Clouds
2:30 AM 77.0 °F - 71.6 °F 83% 29.74 in 6.2 mi Calm Calm - N/A   Scattered Clouds
3:00 AM 77.0 °F - 71.6 °F 83% 29.74 in 6.2 mi Calm Calm - N/A   Scattered Clouds
3:30 AM 77.0 °F - 71.6 °F 83% 29.74 in 6.2 mi Calm Calm - N/A   Scattered Clouds
4:00 AM 77.0 °F - 71.6 °F 83% 29.71 in 6.2 mi Calm Calm - N/A   Scattered Clouds
4:30 AM 77.0 °F - 71.6 °F 83% 29.71 in 6.2 mi West 4.6 mph - N/A   Scattered Clouds
5:00 AM 75.2 °F - 71.6 °F 89% 29.71 in 6.2 mi Calm Calm - N/A   Scattered Clouds
5:30 AM 75.2 °F - 71.6 °F 89% 29.71 in 6.2 mi WSW 2.3 mph - N/A   Scattered Clouds
6:00 AM 75.2 °F - 71.6 °F 89% 29.74 in 6.2 mi Calm Calm - N/A   Scattered Clouds
6:30 AM 75.2 °F - 71.6 °F 89% 29.74 in 6.2 mi WSW 2.3 mph - N/A   Mostly Cloudy
7:00 AM 77 °F - 74 °F 86% 29.68 in 6 mi Calm Calm - -   Scattered Clouds
7:00 AM 77.0 °F - 71.6 °F 83% 29.74 in 6.2 mi Calm Calm - N/A   Mostly Cloudy
7:30 AM 77.0 °F - 71.6 °F 83% 29.74 in 6.2 mi Calm Calm - N/A   Mostly Cloudy
8:00 AM 78.8 °F - 71.6 °F 78% 29.77 in 6.2 mi WNW 2.3 mph - N/A   Mostly Cloudy
8:30 AM 80.6 °F 84.6 °F 71.6 °F 74% 29.77 in 6.2 mi West 4.6 mph - N/A   Mostly Cloudy
9:00 AM 80.6 °F 85.4 °F 73.4 °F 79% 29.80 in 6.2 mi WSW 5.8 mph - N/A   Mostly Cloudy
9:30 AM 84.2 °F 89.6 °F 71.6 °F 66% 29.80 in 6.2 mi WSW 3.5 mph - N/A   Mostly Cloudy
10:00 AM 86.0 °F 89.4 °F 68.0 °F 55% 29.80 in 6.2 mi NNW 8.1 mph - N/A   Mostly Cloudy
10:30 AM 86.0 °F 88.2 °F 66.2 °F 51% 29.80 in 6.2 mi North 13.8 mph - N/A   Scattered Clouds
11:00 AM 86.0 °F 87.3 °F 64.4 °F 48% 29.80 in 6.2 mi North 11.5 mph - N/A   Scattered Clouds
11:30 AM 86.0 °F 88.2 °F 66.2 °F 51% 29.80 in 6.2 mi North 10.4 mph - N/A   Scattered Clouds
12:00 PM 86.0 °F 88.2 °F 66.2 °F 51% 29.77 in 6.2 mi North 13.8 mph - N/A   Scattered Clouds
12:30 PM 86.0 °F 89.4 °F 68.0 °F 55% 29.77 in 6.2 mi North 12.7 mph - N/A   Scattered Clouds
1:00 PM 87 °F - 70 °F 47% 29.68 in 7 mi North 10.4 mph - -   Overcast
1:00 PM 86.0 °F 88.2 °F 66.2 °F 51% 29.74 in 6.2 mi North 17.3 mph - N/A   Scattered Clouds
1:30 PM 87.8 °F 90.4 °F 66.2 °F 49% 29.74 in 6.2 mi North 16.1 mph - N/A   Scattered Clouds
2:00 PM 87.8 °F 89.4 °F 64.4 °F 46% 29.71 in 6.2 mi North 17.3 mph - N/A   Scattered Clouds
2:30 PM 87.8 °F 89.4 °F 64.4 °F 46% 29.71 in 6.2 mi North 16.1 mph - N/A   Scattered Clouds
3:00 PM 87.8 °F 89.4 °F 64.4 °F 46% 29.68 in 6.2 mi North 16.1 mph - N/A   Scattered Clouds
3:30 PM 87.8 °F 88.5 °F 62.6 °F 43% 29.68 in 6.2 mi NNW 17.3 mph - N/A   Scattered Clouds
4:00 PM 87.8 °F 89.4 °F 64.4 °F 46% 29.68 in 6.2 mi NNW 16.1 mph - N/A   Mostly Cloudy
4:30 PM 87.8 °F 90.4 °F 66.2 °F 49% 29.68 in 6.2 mi North 16.1 mph - N/A   Mostly Cloudy
5:00 PM 86.0 °F 88.2 °F 66.2 °F 51% 29.68 in 6.2 mi North 13.8 mph - N/A   Mostly Cloudy
5:30 PM 86.0 °F 88.2 °F 66.2 °F 51% 29.68 in 6.2 mi North 15.0 mph - N/A   Scattered Clouds
6:00 PM 86.0 °F 88.2 °F 66.2 °F 51% 29.71 in 6.2 mi North 12.7 mph - N/A   Scattered Clouds
6:30 PM 86.0 °F 87.3 °F 64.4 °F 48% 29.71 in 6.2 mi NNE 10.4 mph - N/A   Scattered Clouds
7:00 PM 85 °F - 68 °F 48% 29.63 in 6 mi NNE 5.8 mph - -   Scattered Clouds
7:00 PM 84.2 °F 85.6 °F 64.4 °F 51% 29.71 in 6.2 mi North 11.5 mph - N/A   Scattered Clouds
7:30 PM 84.2 °F 85.0 °F 62.6 °F 48% 29.71 in 6.2 mi North 10.4 mph - N/A   Scattered Clouds
8:00 PM 84.2 °F 85.0 °F 62.6 °F 48% 29.71 in 6.2 mi NNE 6.9 mph - N/A   Scattered Clouds
8:30 PM 84.2 °F 85.6 °F 64.4 °F 51% 29.74 in 6.2 mi NNE 5.8 mph - N/A   Scattered Clouds
9:00 PM 82.4 °F 83.9 °F 64.4 °F 54% 29.74 in 6.2 mi North 5.8 mph - N/A   Scattered Clouds
9:30 PM 82.4 °F 83.9 °F 64.4 °F 54% 29.74 in 6.2 mi NNE 5.8 mph - N/A   Scattered Clouds
10:00 PM 82.4 °F 84.6 °F 66.2 °F 58% 29.77 in 6.2 mi ESE 3.5 mph - N/A   Scattered Clouds
10:30 PM 80.6 °F 83.2 °F 68.0 °F 65% 29.77 in 6.2 mi SSE 5.8 mph - N/A   Scattered Clouds
11:00 PM 80.6 °F 83.2 °F 68.0 °F 65% 29.77 in 6.2 mi SSE 5.8 mph - N/A   Scattered Clouds
11:30 PM 80.6 °F 83.9 °F 69.8 °F 70% 29.77 in 6.2 mi South 1.2 mph - N/A   Scattered Clouds